G6UIM Weather Reports


Display with metric or nautical units.
time (UTC)temp
F
wind
direction
speed
MPH
gust
MPH
rain 1hr
in
rain 24hr
in
rain mn
in
humidity
%
barometer
mb
20260507164016 56 90 2.0 5.0 0.00 0.00 0.00 73 1015.4
20260507163016 56 90 1.0 4.0 0.00 0.00 0.00 73 1015.5
20260507162016 56 90 2.0 4.0 0.00 0.00 0.00 73 1015.5
20260507161016 56 90 2.0 5.0 0.00 0.00 0.00 72 1015.3
20260507160016 56 113 1.0 5.0 0.00 0.00 0.00 72 1015.6
20260507155016 56 113 1.0 3.0 0.00 0.00 0.00 71 1015.6
20260507154016 56 135 1.0 4.0 0.00 0.00 0.00 70 1015.6
20260507153016 56 113 2.0 4.0 0.00 0.00 0.00 72 1015.7
20260507152016 56 90 1.0 4.0 0.00 0.00 0.00 71 1015.7
20260507151016 56 113 2.0 5.0 0.00 0.00 0.00 71 1015.7
20260507150016 56 90 2.0 6.0 0.00 0.00 0.00 70 1015.8
20260507145016 56 0.0 3.0 0.00 0.00 0.00 70 1015.9
20260507144016 57 113 1.0 4.0 0.00 0.00 0.00 69 1016.0
20260507143016 57 113 1.0 4.0 0.00 0.00 0.00 67 1016.0
20260507142036 57 135 3.0 7.0 0.00 0.00 0.00 63 1016.1
20260507141016 58 113 1.0 4.0 0.00 0.00 0.00 57 1016.2
20260507140016 57 135 4.0 8.0 0.00 0.00 0.00 56 1016.3
20260507135016 58 135 3.0 8.0 0.00 0.00 0.00 59 1016.4
20260507134016 58 135 2.0 5.0 0.00 0.00 0.00 61 1016.3
20260507133016 59 135 2.0 9.0 0.00 0.00 0.00 59 1016.4
20260507132016 59 135 3.0 10.0 0.00 0.00 0.00 57 1016.2
20260507131016 60 113 2.0 8.0 0.00 0.00 0.00 59 1016.2
20260507130016 59 135 3.0 8.0 0.00 0.00 0.00 62 1016.3
20260507125016 58 135 2.0 9.0 0.00 0.00 0.00 61 1016.3
20260507124016 59 113 2.0 9.0 0.00 0.00 0.00 65 1016.4
20260507123016 59 113 2.0 4.0 0.00 0.00 0.00 63 1016.4
20260507122016 59 90 1.0 7.0 0.00 0.00 0.00 69 1016.4
20260507121016 59 135 3.0 9.0 0.00 0.00 0.00 68 1016.5
20260507120016 59 113 1.0 6.0 0.00 0.00 0.00 70 1016.5
20260507115036 58 135 2.0 9.0 0.00 0.00 0.00 69 1016.6
20260507114036 58 113 2.0 5.0 0.00 0.00 0.00 70 1016.5
20260507113016 58 135 2.0 8.0 0.00 0.00 0.00 73 1016.6
20260507112036 57 135 1.0 5.0 0.00 0.00 0.00 73 1016.5
20260507111016 56 135 1.0 6.0 0.00 0.00 0.00 74 1016.5
20260507110016 56 90 1.0 3.0 0.00 0.00 0.00 74 1016.4
20260507105016 56 90 1.0 4.0 0.00 0.00 0.00 75 1016.3
20260507104036 56 270 1.0 4.0 0.00 0.00 0.00 72 1016.5
20260507103015 57 338 1.0 5.0 0.00 0.00 0.00 73 1016.5
20260507102015 57 225 1.0 8.0 0.00 0.00 0.00 73 1016.4
20260507101016 56 270 1.0 5.0 0.00 0.00 0.00 73 1016.5
20260507100016 55 68 1.0 3.0 0.00 0.00 0.00 74 1016.6
20260507095015 55 0.0 2.0 0.00 0.00 0.00 76 1016.5
20260507094036 55 0.0 0.0 0.00 0.00 0.00 82 1016.6
20260507093015 54 248 1.0 4.0 0.00 0.00 0.00 84 1016.5
20260507092016 53 0.0 2.0 0.00 0.00 0.00 87 1016.4
20260507091016 53 0.0 0.0 0.00 0.00 0.00 89 1016.5
20260507090015 52 0.0 3.0 0.00 0.00 0.00 90 1016.5
20260507085035 52 113 1.0 3.0 0.00 0.00 0.00 90 1016.4
20260507084016 51 0.0 2.0 0.00 0.00 0.00 91 1016.5
20260507083015 51 0.0 2.0 0.00 0.00 0.00 91 1016.5
20260507082015 51 0.0 2.0 0.00 0.00 0.00 91 1016.5
20260507081015 51 0.0 0.0 0.00 0.00 0.00 91 1016.3
20260507080015 50 0.0 0.0 0.00 0.00 0.00 91 1016.4
20260507075035 50 0.0 0.0 0.00 0.00 0.00 92 1016.3
20260507074036 49 0.0 0.0 0.00 0.00 0.00 92 1016.3
20260507073038 48 0.0 0.0 0.00 0.00 0.00 91 1016.2
20260507072017 47 0.0 0.0 0.00 0.00 0.00 91 1016.2
20260507071037 47 0.0 0.0 0.00 0.00 0.00 91 1016.1
20260507070017 46 270 1.0 2.0 0.00 0.00 0.00 91 1016.0
20260507065037 46 0.0 2.0 0.00 0.00 0.00 91 1016.0
20260507064017 46 0.0 0.0 0.00 0.00 0.00 91 1015.9
20260507063017 45 0.0 0.0 0.00 0.00 0.00 91 1015.8
20260507062017 44 270 1.0 2.0 0.00 0.00 0.00 91 1015.7
20260507061017 44 270 2.0 3.0 0.00 0.00 0.00 91 1015.7
20260507060017 44 0.0 0.0 0.00 0.00 0.00 91 1015.7
20260507055017 43 270 1.0 3.0 0.00 0.00 0.00 91 1015.6
20260507054017 43 0.0 1.0 0.00 0.00 0.00 91 1015.6
20260507053017 43 270 1.0 3.0 0.00 0.00 0.00 91 1015.6
20260507052017 43 0.0 0.0 0.00 0.00 0.00 91 1015.5
20260507051037 43 0.0 0.0 0.00 0.00 0.00 91 1015.4
20260507050017 43 0.0 0.0 0.00 0.00 0.00 91 1015.4
20260507045017 43 0.0 1.0 0.00 0.00 0.00 91 1015.5
20260507044017 43 0.0 0.0 0.00 0.00 0.00 91 1015.5
20260507043017 43 0.0 0.0 0.00 0.00 0.00 90 1015.4
20260507042017 44 270 1.0 4.0 0.00 0.00 0.00 90 1015.5
20260507041018 44 0.0 0.0 0.00 0.00 0.00 90 1015.4
20260507040017 43 0.0 0.0 0.00 0.00 0.00 90 1015.5
20260507035017 43 0.0 0.0 0.00 0.00 0.00 90 1015.5
20260507034017 43 270 1.0 2.0 0.00 0.00 0.00 90 1015.5
20260507033037 43 270 1.0 3.0 0.00 0.00 0.00 90 1015.5
20260507032017 44 0.0 3.0 0.00 0.00 0.00 90 1015.4
20260507031017 43 0.0 1.0 0.00 0.00 0.00 90 1015.5
20260507030017 44 0.0 1.0 0.00 0.00 0.00 90 1015.4
20260507025017 43 0.0 1.0 0.00 0.00 0.00 90 1015.5
20260507024017 43 270 1.0 3.0 0.00 0.00 0.00 89 1015.5
20260507023017 43 270 1.0 3.0 0.00 0.00 0.00 89 1015.4
20260507022017 44 270 1.0 3.0 0.00 0.00 0.00 89 1015.3
20260507021037 44 0.0 0.0 0.00 0.00 0.00 89 1015.3
20260507020017 45 0.0 0.0 0.00 0.00 0.00 89 1015.2
20260507015057 45 0.0 0.0 0.00 0.00 0.00 89 1015.2
20260507014017 45 0.0 0.0 0.00 0.00 0.00 89 1015.3
20260507013017 45 0.0 0.0 0.00 0.00 0.00 89 1015.3
20260507012017 45 0.0 0.0 0.00 0.00 0.00 88 1015.3
20260507011017 45 0.0 0.0 0.00 0.00 0.00 88 1015.2
20260507010037 46 0.0 0.0 0.00 0.00 0.00 88 1015.3
20260507005037 46 0.0 0.0 0.00 0.00 0.00 88 1015.4
20260507004017 46 0.0 0.0 0.00 0.00 0.00 87 1015.3
20260507003017 46 0.0 0.0 0.00 0.00 0.00 87 1015.3
20260507002016 46 0.0 0.0 0.00 0.00 0.00 87 1015.3
20260507001037 47 0.0 0.0 0.00 0.00 0.00 87 1015.4
20260507000016 47 0.0 0.0 0.00 0.00 0.00 87 1015.5
20260506235017 47 0.0 0.0 0.00 0.00 0.00 86 1015.4
20260506234036 47 0.0 0.0 0.00 0.00 0.00 86 1015.4
20260506233017 48 0.0 0.0 0.00 0.00 0.00 86 1015.3
20260506232016 48 0.0 0.0 0.00 0.00 0.00 86 1015.4
20260506231015 48 0.0 0.0 0.00 0.00 0.00 86 1015.5
20260506230015 48 0.0 0.0 0.00 0.00 0.00 85 1015.5
20260506225017 48 0.0 0.0 0.00 0.00 0.00 85 1015.5
20260506224017 49 270 1.0 2.0 0.00 0.00 0.00 85 1015.6
20260506223037 49 0.0 0.0 0.00 0.00 0.00 84 1015.6
20260506222017 49 0.0 2.0 0.00 0.00 0.00 85 1015.6
20260506221017 49 270 1.0 3.0 0.00 0.00 0.00 84 1015.6
20260506220017 50 0.0 2.0 0.00 0.00 0.00 84 1015.6
20260506215017 50 270 2.0 4.0 0.00 0.00 0.00 84 1015.6
20260506214017 50 270 1.0 4.0 0.00 0.00 0.00 84 1015.6
20260506213017 51 0.0 0.0 0.00 0.00 0.00 83 1015.7
20260506212017 51 0.0 0.0 0.00 0.00 0.00 83 1015.7
20260506211017 51 0.0 0.0 0.00 0.00 0.00 83 1015.7
20260506210017 52 270 1.0 3.0 0.00 0.00 0.00 82 1015.7
20260506205017 52 0.0 0.0 0.00 0.00 0.00 82 1015.5
20260506204017 52 0.0 0.0 0.00 0.00 0.00 82 1015.4
20260506203017 52 0.0 0.0 0.00 0.00 0.00 81 1015.3
20260506202017 52 0.0 0.0 0.00 0.00 0.00 80 1015.3
20260506201057 52 0.0 0.0 0.00 0.00 0.00 80 1015.3
20260506200017 53 0.0 0.0 0.00 0.00 0.00 80 1015.3
20260506195017 53 0.0 0.0 0.00 0.00 0.00 79 1015.2
20260506194017 53 0.0 0.0 0.00 0.00 0.00 79 1015.1
20260506193017 53 0.0 0.0 0.00 0.00 0.00 79 1015.1
20260506192017 53 0.0 0.0 0.00 0.00 0.00 79 1015.0
20260506191017 53 0.0 2.0 0.00 0.00 0.00 79 1015.1
20260506190018 53 0.0 2.0 0.00 0.00 0.00 78 1015.1
20260506185017 54 270 1.0 4.0 0.00 0.00 0.00 78 1014.9
20260506184017 54 0.0 0.0 0.00 0.00 0.00 78 1014.9
20260506183037 54 270 1.0 4.0 0.00 0.00 0.00 77 1015.0
20260506182017 54 270 1.0 4.0 0.00 0.00 0.00 77 1015.0
20260506181016 54 248 2.0 4.0 0.00 0.00 0.00 77 1014.9
20260506180016 55 248 3.0 4.0 0.00 0.00 0.00 76 1014.8
20260506175017 55 248 1.0 3.0 0.00 0.00 0.00 74 1014.9
20260506174017 55 270 3.0 6.0 0.00 0.00 0.00 72 1014.9
20260506173016 55 248 2.0 5.0 0.00 0.00 0.00 73 1014.8
20260506172016 55 248 3.0 6.0 0.00 0.00 0.00 74 1014.7
20260506171037 55 248 2.0 6.0 0.00 0.00 0.00 75 1014.7
20260506170017 55 270 3.0 7.0 0.00 0.00 0.00 74 1014.7
20260506165017 56 315 1.0 4.0 0.00 0.00 0.00 75 1014.7